QPF
0.00 0.00 0.00 0.00 0.00 0.00 0.00 0.00 0.00 0.00 0.00 0.00 0.00 0.00 0.00 0.00 0.00 0.00 0.00 0.00 0.00 0.00 0.00 0.00 0.00 0.00 0.00 0.00 0.00 0.00 0.00 0.00 0.00 0.00 0.00 0.00 0.00 0.00 0.00 0.00 0.00 0.00 0.00 0.00 0.00 0.00 0.00
0.00 0.00 0.00 0.00 0.00 0.00 0.00 0.00 0.00 0.00 0.00 0.00 0.00 0.00 0.00 0.00 0.00 0.00 0.00 0.00 0.00 0.00 0.00 0.00 0.00 0.00 0.00 0.00 0.00 0.00 0.00 0.00 0.00 0.00 0.00 0.00 0.00 0.00 0.00 0.00 0.00 0.00 0.00 0.00 0.00 0.00 0.00
0.00 0.00 0.00 0.00 0.00 0.00 0.00 0.00 0.00 0.00 0.00 0.00 0.00 0.00 0.00 0.00 0.00 0.00 0.00 0.00 0.00 0.00 0.00 0.00 0.00 0.00 0.00 0.00 0.00 0.00 0.00 0.00 0.00 0.00 0.00 0.00 0.00 0.00 0.00 0.00 0.00 0.00 0.00 0.00 0.00 0.00 0.00
0.00 0.00 0.00 0.00 0.00 0.00 0.00 0.00 0.00 0.00 0.00 0.00 0.00 0.00 0.00 0.00 0.00 0.00 0.00 0.00 0.00 0.00 0.00 0.00 0.00 0.00 0.00 0.00 0.00 0.00 0.00 0.00 0.00 0.00 0.00 0.00 0.00 0.00 0.00 0.00 0.00 0.00 0.00 0.00 0.00 0.00 0.00
0.00 0.00 0.00 0.00 0.00 0.00 0.00 0.00 0.00 0.00 0.00 0.00 0.00 0.00 0.00 0.00 0.00 0.00 0.00 0.00 0.00 0.00 0.00 0.00 0.00 0.00 0.00 0.00 0.00 0.00 0.00 0.00 0.00 0.00 0.00 0.00 0.00 0.00 0.00 0.00 0.00 0.01 0.00 0.00 0.00 0.00 0.00
0.00 0.00 0.00 0.00 0.00 0.00 0.00 0.00 0.00 0.00 0.00 0.00 0.00 0.00 0.00 0.00 0.00 0.00 0.00 0.00 0.00 0.00 0.00 0.00 0.00 0.00 0.00 0.00 0.00 0.00 0.00 0.00 0.00 0.00 0.00 0.00 0.00 0.00 0.00 0.00 0.00 0.00 0.00 0.00 0.00 0.00 0.00
0.00 0.00 0.00 0.00 0.00 0.00 0.00 0.00 0.00 0.00 0.00 0.00 0.00 0.00 0.00 0.00 0.00 0.00 0.00 0.00 0.00 0.00 0.00 0.00 0.00 0.00 0.00 0.00 0.00 0.00 0.00 0.00 0.00 0.00 0.00 0.00 0.00 0.00 0.00 0.00 0.00 0.00 0.00 0.00 0.00 0.00 0.00
0.00 0.00 0.00 0.00 0.00 0.00 0.00 0.00 0.00 0.00 0.00 0.00 0.00 0.00 0.00 0.00 0.00 0.00 0.00 0.00 0.00 0.00 0.00 0.00 0.00 0.00 0.00 0.00 0.00 0.00 0.00 0.00 0.00 0.00 0.00 0.00 0.00 0.00 0.00 0.00 0.00 0.00 0.00 0.00 0.00 0.00 0.00
0.00 0.00 0.00 0.00 0.00 0.00 0.00 0.00 0.00 0.00 0.00 0.00 0.00 0.00 0.00 0.00 0.00 0.00 0.00 0.00 0.00 0.00 0.00 0.00 0.00 0.00 0.00 0.00 0.00 0.00 0.00 0.00 0.00 0.00 0.00 0.00 0.00 0.00 0.00 0.00 0.00 0.00 0.00 0.00 0.00 0.00 0.00
0.00 0.00 0.00 0.00 0.00 0.00 0.00 0.00 0.00 0.00 0.00 0.00 0.00 0.00 0.00 0.00 0.00 0.00 0.00 0.00 0.00 0.00 0.00 0.00 0.00 0.00 0.00 0.00 0.00 0.00 0.00 0.00 0.00 0.00 0.00 0.00 0.00 0.00 0.00 0.00 0.00 0.00 0.00 0.00 0.00 0.00 0.00
0.00 0.00 0.00 0.00 0.00 0.00 0.00 0.00 0.00 0.00 0.00 0.00 0.00 0.00 0.00 0.00 0.00 0.00 0.00 0.00 0.00 0.00 0.00 0.00 0.00 0.00 0.00 0.00 0.00 0.00 0.00 0.00 0.00 0.00 0.00 0.00 0.00 0.00 0.00 0.00 0.00 0.00 0.00 0.00 0.00 0.00 0.00
0.00 0.00 0.00 0.00 0.00 0.00 0.00 0.00 0.00 0.00 0.00 0.00 0.00 0.00 0.00 0.00 0.00 0.00 0.00 0.00 0.00 0.00 0.00 0.00 0.00 0.00 0.00 0.00 0.00 0.00 0.00 0.00 0.00 0.00 0.00 0.00 0.00 0.00 0.00 0.00 0.01 0.00 0.00 0.00 0.00 0.00 0.00
0.00 0.00 0.00 0.00 0.00 0.00 0.00 0.00 0.00 0.00 0.00 0.00 0.00 0.00 0.00 0.00 0.00 0.00 0.00 0.00 0.00 0.00 0.00 0.00 0.00 0.00 0.00 0.00 0.00 0.00 0.00 0.00 0.00 0.00 0.00 0.00 0.00 0.00 0.00 0.00 0.03 0.03 0.01 0.01 0.00 0.00 0.00
0.00 0.00 0.00 0.00 0.00 0.00 0.00 0.00 0.00 0.00 0.00 0.00 0.00 0.00 0.00 0.00 0.00 0.00 0.00 0.00 0.00 0.00 0.00 0.00 0.00 0.00 0.00 0.00 0.00 0.00 0.00 0.00 0.00 0.00 0.00 0.00 0.00 0.00 0.00 0.00 0.01 0.03 0.01 0.02 0.00 0.00 0.00
0.00 0.00 0.00 0.00 0.00 0.00 0.00 0.00 0.00 0.00 0.00 0.00 0.00 0.00 0.00 0.00 0.00 0.00 0.00 0.00 0.00 0.00 0.00 0.00 0.00 0.00 0.00 0.00 0.00 0.00 0.00 0.00 0.00 0.00 0.00 0.00 0.00 0.00 0.00 0.00 0.00 0.00 0.00 0.01 0.00 0.00 0.00
0.00 0.00 0.00 0.00 0.00 0.00 0.00 0.00 0.00 0.00 0.00 0.00 0.00 0.00 0.00 0.00 0.00 0.00 0.00 0.00 0.00 0.00 0.00 0.00 0.00 0.00 0.00 0.00 0.00 0.00 0.00 0.00 0.00 0.00 0.00 0.00 0.00 0.00 0.00 0.00 0.00 0.00 0.00 0.00 0.00 0.00 0.00
0.00 0.00 0.00 0.00 0.00 0.00 0.00 0.00 0.00 0.00 0.00 0.00 0.00 0.00 0.00 0.00 0.00 0.00 0.00 0.00 0.00 0.00 0.00 0.00 0.00 0.00 0.00 0.00 0.00 0.00 0.00 0.00 0.00 0.00 0.00 0.00 0.00 0.00 0.00 0.00 0.00 0.00 0.00 0.00 0.00 0.00 0.00
0.00 0.00 0.00 0.00 0.00 0.00 0.00 0.00 0.00 0.00 0.00 0.00 0.00 0.00 0.00 0.00 0.00 0.00 0.00 0.00 0.00 0.00 0.00 0.00 0.00 0.00 0.00 0.00 0.00 0.00 0.00 0.00 0.00 0.00 0.00 0.00 0.00 0.00 0.00 0.00 0.00 0.00 0.00 0.00 0.00 0.00 0.00
0.00 0.00 0.00 0.00 0.00 0.00 0.00 0.00 0.00 0.00 0.00 0.00 0.00 0.00 0.00 0.00 0.00 0.00 0.00 0.00 0.00 0.00 0.00 0.00 0.00 0.00 0.00 0.00 0.00 0.00 0.00 0.00 0.00 0.00 0.00 0.00 0.00 0.00 0.00 0.00 0.00 0.00 0.00 0.00 0.00 0.00 0.00
0.00 0.00 0.00 0.00 0.00 0.00 0.00 0.00 0.00 0.00 0.00 0.00 0.00 0.00 0.00 0.00 0.00 0.00 0.00 0.00 0.00 0.00 0.00 0.00 0.00 0.00 0.00 0.00 0.00 0.00 0.00 0.00 0.00 0.00 0.00 0.00 0.00 0.00 0.00 0.00 0.00 0.00 0.00 0.00 0.00 0.00 0.00
0.00 0.00 0.00 0.00 0.00 0.00 0.00 0.00 0.00 0.00 0.00 0.00 0.00 0.00 0.00 0.00 0.00 0.00 0.00 0.00 0.00 0.00 0.00 0.00 0.00 0.00 0.00 0.00 0.00 0.00 0.00 0.00 0.00 0.00 0.00 0.00 0.00 0.00 0.00 0.00 0.00 0.00 0.00 0.00 0.00 0.00 0.00
0.00 0.00 0.00 0.00 0.00 0.00 0.00 0.00 0.00 0.00 0.00 0.00 0.00 0.00 0.00 0.00 0.00 0.00 0.00 0.00 0.00 0.00 0.00 0.00 0.00 0.00 0.00 0.00 0.00 0.00 0.00 0.00 0.00 0.00 0.00 0.00 0.00 0.00 0.00 0.00 0.00 0.00 0.00 0.00 0.00 0.00 0.00
0.00 0.00 0.00 0.00 0.00 0.00 0.00 0.00 0.00 0.00 0.00 0.00 0.00 0.00 0.00 0.00 0.00 0.00 0.00 0.00 0.00 0.00 0.00 0.00 0.00 0.00 0.00 0.00 0.00 0.00 0.00 0.00 0.00 0.00 0.00 0.00 0.00 0.00 0.00 0.00 0.00 0.00 0.00 0.00 0.00 0.00 0.00
0.00 0.00 0.00 0.00 0.00 0.00 0.00 0.00 0.00 0.00 0.00 0.00 0.00 0.00 0.00 0.00 0.00 0.00 0.00 0.00 0.00 0.00 0.00 0.00 0.00 0.00 0.00 0.00 0.00 0.00 0.00 0.00 0.00 0.00 0.00 0.00 0.00 0.00 0.00 0.00 0.00 0.00 0.00 0.00 0.00 0.00 0.00
0.00 0.00 0.00 0.00 0.00 0.00 0.00 0.00 0.00 0.00 0.00 0.00 0.00 0.00 0.00 0.00 0.00 0.00 0.00 0.00 0.00 0.00 0.00 0.00 0.00 0.00 0.00 0.00 0.00 0.00 0.00 0.00 0.00 0.00 0.00 0.00 0.00 0.00 0.00 0.00 0.00 0.00 0.00 0.00 0.00 0.00 0.00
0.00 0.00 0.00 0.00 0.00 0.00 0.00 0.00 0.00 0.00 0.00 0.00 0.00 0.00 0.00 0.00 0.00 0.00 0.00 0.00 0.00 0.00 0.00 0.00 0.00 0.00 0.00 0.00 0.00 0.00 0.00 0.00 0.00 0.00 0.00 0.00 0.00 0.00 0.00 0.00 0.00 0.00 0.00 0.00 0.00 0.00 0.00
0.00 0.00 0.00 0.00 0.00 0.00 0.00 0.00 0.00 0.00 0.00 0.00 0.00 0.00 0.00 0.00 0.00 0.00 0.00 0.00 0.00 0.00 0.00 0.00 0.00 0.00 0.00 0.00 0.00 0.00 0.00 0.00 0.00 0.00 0.00 0.00 0.00 0.00 0.00 0.00 0.00 0.00 0.00 0.00 0.00 0.00 0.00
0.00 0.00 0.00 0.00 0.00 0.00 0.00 0.00 0.00 0.00 0.00 0.00 0.00 0.00 0.00 0.00 0.00 0.00 0.00 0.00 0.00 0.00 0.00 0.00 0.00 0.00 0.00 0.00 0.01 0.00 0.00 0.00 0.00 0.00 0.00 0.00 0.00 0.00 0.00 0.00 0.00 0.00 0.00 0.00 0.00 0.00 0.00
0.00 0.00 0.00 0.00 0.00 0.00 0.00 0.00 0.00 0.00 0.00 0.00 0.00 0.00 0.00 0.00 0.00 0.00 0.00 0.00 0.00 0.00 0.00 0.00 0.00 0.00 0.00 0.00 0.00 0.00 0.00 0.00 0.00 0.00 0.00 0.00 0.00 0.00 0.00 0.00 0.00 0.00 0.00 0.00 0.00 0.00 0.00
MSLP
1020.59 1020.25 1019.94 1019.62 1019.37 1019.03 1018.64 1018.20 1017.78 1017.38 1016.94 1016.46 1015.99 1015.49 1014.91 1014.40 1013.84 1013.21 1012.61 1012.19 1011.75 1011.36 1010.92 1010.45 1010.03 1009.60 1009.09 1008.02 1004.94 1002.51 1002.84 1002.99 1003.67 1004.17 1004.31 1004.23 1004.39 1004.57 1004.61 1004.23 1004.17 1004.70 1005.07 1005.27 1005.31 1005.55 1005.76
1020.52 1020.22 1019.93 1019.65 1019.46 1019.13 1018.72 1018.27 1017.88 1017.50 1017.02 1016.35 1015.72 1015.21 1014.62 1014.07 1013.48 1012.88 1012.24 1011.70 1011.27 1010.88 1010.51 1010.18 1009.88 1009.58 1008.94 1006.58 1003.21 1002.77 1003.16 1003.29 1003.56 1004.06 1004.18 1004.13 1004.26 1004.13 1004.27 1004.16 1004.31 1005.18 1005.29 1005.73 1006.11 1006.25 1006.37
1020.47 1020.18 1019.88 1019.66 1019.53 1019.14 1018.73 1018.31 1017.88 1017.41 1016.81 1016.24 1015.63 1015.05 1014.46 1013.80 1013.13 1012.46 1011.76 1011.06 1010.72 1010.38 1010.02 1009.79 1009.63 1009.41 1008.35 1004.84 1003.21 1003.14 1003.38 1003.58 1003.48 1003.76 1003.93 1003.89 1004.02 1004.29 1004.24 1004.56 1004.90 1005.82 1006.15 1006.35 1006.84 1006.96 1007.30
1020.54 1020.29 1019.98 1019.77 1019.52 1019.15 1018.79 1018.40 1017.95 1017.45 1016.85 1016.25 1015.57 1014.93 1014.25 1013.55 1012.79 1012.05 1011.20 1010.46 1010.09 1009.74 1009.46 1009.36 1009.41 1009.17 1006.91 1003.69 1003.23 1003.30 1003.40 1003.36 1003.26 1003.43 1003.48 1003.85 1003.93 1004.22 1004.21 1004.57 1005.26 1006.10 1007.00 1007.15 1007.13 1007.06 1007.35
1020.64 1020.43 1020.15 1019.84 1019.54 1019.18 1018.77 1018.33 1017.89 1017.40 1016.81 1016.17 1015.50 1014.82 1014.02 1013.21 1012.46 1011.60 1010.61 1009.92 1009.38 1008.98 1009.05 1009.13 1009.23 1008.59 1005.82 1003.52 1003.38 1002.70 1002.99 1003.24 1003.15 1003.39 1003.25 1003.52 1003.89 1004.45 1004.76 1005.32 1005.91 1006.97 1007.14 1007.06 1006.75 1006.86 1007.43
1020.72 1020.50 1020.26 1019.89 1019.52 1019.17 1018.77 1018.31 1017.79 1017.25 1016.68 1016.02 1015.30 1014.55 1013.80 1012.93 1012.08 1011.17 1010.05 1009.06 1008.93 1008.99 1009.04 1009.02 1008.57 1008.19 1005.07 1003.67 1002.89 1002.57 1002.77 1003.01 1003.25 1003.51 1003.61 1003.90 1004.66 1005.18 1006.05 1006.14 1006.78 1006.78 1007.09 1006.76 1006.42 1006.59 1007.48
1020.83 1020.55 1020.29 1019.91 1019.49 1019.08 1018.64 1018.22 1017.72 1017.12 1016.42 1015.76 1015.04 1014.33 1013.55 1012.66 1011.79 1010.94 1009.97 1008.83 1008.98 1008.96 1008.37 1007.46 1006.96 1006.26 1004.87 1003.72 1002.76 1002.64 1002.61 1003.20 1003.52 1003.88 1004.63 1004.99 1005.72 1006.24 1006.45 1006.36 1006.37 1006.27 1006.45 1006.54 1006.14 1006.58 1007.04
1020.81 1020.53 1020.23 1019.84 1019.43 1018.98 1018.57 1018.08 1017.58 1017.03 1016.34 1015.56 1014.82 1014.08 1013.29 1012.33 1011.44 1010.77 1010.55 1009.91 1009.02 1009.21 1008.22 1006.15 1005.69 1005.26 1004.48 1004.12 1003.97 1003.01 1002.74 1003.33 1003.82 1004.62 1004.97 1005.70 1005.93 1005.82 1005.79 1005.74 1006.00 1006.35 1006.56 1006.54 1006.28 1006.48 1006.99
1020.77 1020.46 1020.15 1019.78 1019.32 1018.84 1018.41 1017.96 1017.42 1016.84 1016.15 1015.54 1014.77 1013.98 1013.24 1012.14 1011.20 1010.85 1010.79 1009.35 1008.48 1008.45 1008.25 1005.62 1004.83 1004.19 1003.71 1003.86 1003.63 1003.00 1002.86 1003.18 1003.90 1004.78 1005.33 1005.89 1005.62 1005.36 1005.41 1005.50 1006.13 1006.47 1006.80 1006.86 1006.96 1006.86 1007.47
1020.59 1020.32 1020.02 1019.64 1019.19 1018.73 1018.21 1017.72 1017.20 1016.58 1015.98 1015.33 1014.60 1013.98 1013.42 1012.25 1011.25 1011.52 1009.95 1008.43 1008.17 1007.89 1007.74 1005.39 1004.06 1002.85 1003.02 1003.07 1003.01 1002.31 1002.35 1003.08 1004.07 1004.61 1005.40 1005.55 1005.25 1005.27 1005.25 1005.46 1006.09 1006.18 1006.32 1006.70 1006.93 1007.58 1007.99
1020.42 1020.12 1019.79 1019.36 1019.01 1018.55 1018.00 1017.55 1016.94 1016.33 1015.72 1015.05 1014.30 1013.85 1013.58 1013.43 1012.73 1011.59 1009.11 1008.26 1007.85 1007.51 1007.13 1004.34 1003.14 1002.03 1002.28 1002.76 1002.62 1002.25 1002.17 1002.87 1003.91 1004.51 1005.23 1005.44 1005.21 1005.33 1005.47 1005.36 1005.64 1005.85 1006.20 1006.81 1007.19 1007.95 1009.02
1020.17 1019.86 1019.54 1019.15 1018.73 1018.31 1017.85 1017.32 1016.69 1016.03 1015.37 1014.61 1013.74 1013.57 1013.44 1013.27 1012.85 1010.01 1009.10 1008.32 1007.82 1008.16 1006.01 1003.70 1002.60 1002.37 1002.78 1002.64 1002.63 1002.44 1002.46 1002.79 1003.60 1004.60 1005.12 1005.25 1004.98 1005.09 1005.07 1005.11 1005.47 1005.98 1006.45 1007.52 1008.51 1009.27 1010.78
1019.87 1019.61 1019.29 1018.88 1018.48 1018.03 1017.56 1017.05 1016.43 1015.73 1015.00 1014.08 1013.12 1012.66 1013.19 1012.69 1010.78 1009.32 1009.09 1008.75 1009.13 1007.89 1005.38 1004.09 1003.19 1002.90 1002.87 1003.06 1003.03 1002.96 1003.38 1003.88 1004.59 1005.44 1005.98 1005.66 1005.29 1004.93 1004.85 1005.46 1006.08 1006.82 1008.02 1009.23 1010.34 1011.08 1010.73
1019.61 1019.33 1019.02 1018.59 1018.27 1017.81 1017.29 1016.78 1016.18 1015.43 1014.59 1013.54 1012.46 1011.61 1011.13 1010.66 1009.75 1009.57 1009.60 1009.80 1009.48 1007.27 1005.75 1004.32 1003.51 1003.32 1003.40 1003.29 1003.38 1003.54 1004.02 1004.65 1004.95 1005.53 1006.26 1006.38 1005.79 1005.00 1004.63 1005.09 1005.94 1006.86 1008.43 1009.49 1010.36 1011.41 1010.73
1019.32 1018.98 1018.69 1018.32 1017.98 1017.60 1017.11 1016.60 1015.97 1015.18 1014.21 1013.13 1011.89 1011.02 1010.85 1008.98 1009.43 1009.78 1010.06 1010.58 1008.98 1007.49 1005.89 1004.85 1003.85 1003.65 1003.61 1003.60 1003.66 1003.96 1004.43 1004.89 1004.94 1005.32 1006.13 1006.39 1005.87 1004.94 1004.54 1004.56 1005.41 1006.37 1007.81 1008.49 1009.37 1011.01 1011.15
1019.09 1018.74 1018.34 1018.05 1017.74 1017.42 1016.91 1016.40 1015.76 1014.98 1013.94 1012.96 1012.50 1011.65 1009.92 1008.57 1008.88 1009.34 1010.22 1010.33 1008.97 1007.28 1005.95 1005.09 1004.55 1003.89 1003.84 1003.69 1003.99 1004.45 1004.50 1003.99 1004.26 1004.39 1004.61 1005.74 1005.92 1004.83 1004.33 1004.50 1004.87 1005.36 1006.15 1007.62 1009.28 1010.97 1011.47
1018.73 1018.41 1017.99 1017.73 1017.57 1017.17 1016.66 1016.20 1015.68 1014.86 1013.72 1012.58 1012.46 1011.36 1008.93 1008.42 1008.53 1009.73 1010.74 1010.18 1008.45 1006.82 1005.95 1005.19 1004.59 1004.10 1003.69 1003.68 1003.89 1004.14 1004.12 1003.51 1003.28 1003.60 1004.50 1005.63 1006.11 1005.09 1004.79 1004.77 1004.71 1005.53 1006.30 1007.59 1009.10 1009.99 1010.73
1018.40 1018.07 1017.71 1017.48 1017.33 1016.95 1016.47 1016.15 1015.73 1015.00 1013.94 1013.00 1012.99 1011.52 1009.17 1009.14 1009.45 1010.68 1010.72 1009.37 1007.83 1006.50 1005.61 1005.14 1004.46 1004.08 1003.63 1003.61 1003.74 1003.79 1003.68 1003.15 1002.26 1003.02 1004.31 1004.78 1005.64 1005.98 1005.19 1004.24 1004.38 1004.84 1005.55 1006.64 1008.31 1009.75 1010.06
1017.98 1017.64 1017.38 1017.26 1017.00 1016.70 1016.35 1016.14 1015.77 1015.23 1014.90 1014.72 1013.97 1012.37 1009.42 1009.30 1009.95 1010.52 1009.91 1008.89 1007.60 1006.48 1005.34 1004.83 1004.29 1003.66 1003.40 1003.53 1003.76 1003.64 1003.04 1002.14 1002.43 1002.76 1002.92 1004.28 1005.31 1005.91 1005.33 1004.78 1004.29 1004.40 1004.78 1005.68 1006.52 1007.71 1008.98
1017.52 1017.27 1017.02 1016.87 1016.72 1016.55 1016.28 1016.12 1015.76 1015.21 1014.99 1015.02 1014.25 1012.79 1010.81 1010.03 1010.21 1010.09 1009.73 1008.58 1007.25 1005.80 1005.04 1004.56 1004.00 1003.55 1003.72 1003.71 1003.74 1003.74 1003.34 1002.45 1002.36 1002.74 1002.41 1002.87 1005.26 1005.30 1005.36 1004.57 1004.10 1004.22 1004.23 1004.78 1005.78 1007.42 1007.84
1017.19 1016.97 1016.77 1016.67 1016.61 1016.44 1016.27 1016.11 1015.70 1014.99 1014.39 1014.72 1014.18 1013.14 1012.13 1011.22 1010.78 1010.19 1009.61 1008.70 1007.37 1006.06 1004.91 1004.48 1004.48 1004.31 1003.96 1004.18 1004.33 1004.35 1003.87 1003.42 1002.99 1003.26 1003.36 1003.81 1004.94 1004.93 1004.18 1004.04 1003.85 1003.45 1003.50 1004.22 1005.16 1005.70 1006.35
1016.91 1016.64 1016.49 1016.46 1016.43 1016.33 1016.27 1016.06 1015.64 1014.87 1014.41 1014.45 1013.97 1013.28 1012.22 1011.64 1010.99 1010.33 1009.63 1008.45 1007.58 1006.47 1005.59 1005.17 1005.13 1004.98 1004.37 1005.33 1005.53 1005.32 1005.25 1005.12 1005.28 1004.65 1004.99 1005.10 1005.31 1005.07 1005.02 1004.31 1003.99 1003.68 1003.41 1003.60 1004.25 1004.71 1005.18
1016.69 1016.44 1016.34 1016.37 1016.40 1016.34 1016.25 1016.08 1015.65 1014.94 1014.19 1014.48 1013.81 1013.05 1012.72 1012.16 1011.44 1010.74 1009.94 1009.09 1007.81 1006.85 1006.09 1005.57 1005.31 1005.07 1005.14 1005.42 1005.58 1005.48 1005.81 1005.97 1006.31 1006.46 1006.60 1006.39 1006.41 1006.38 1005.77 1004.73 1004.19 1004.43 1004.44 1004.26 1004.31 1004.71 1004.94
1016.86 1016.45 1016.34 1016.37 1016.40 1016.41 1016.24 1016.19 1015.77 1015.30 1015.17 1015.28 1014.47 1014.03 1013.51 1012.88 1012.00 1010.96 1010.09 1009.27 1008.30 1007.40 1006.67 1006.04 1005.71 1005.57 1005.92 1005.78 1005.90 1006.13 1006.61 1006.67 1006.49 1007.19 1007.38 1007.35 1007.37 1007.11 1007.16 1005.91 1005.84 1005.26 1004.96 1004.68 1004.52 1004.98 1005.00
1017.44 1016.96 1016.70 1016.62 1016.59 1016.49 1016.35 1016.20 1015.81 1015.44 1015.25 1015.09 1014.63 1014.41 1013.97 1013.43 1012.37 1011.01 1010.19 1009.34 1008.26 1007.58 1007.35 1006.70 1006.45 1006.47 1006.33 1006.51 1007.16 1007.55 1007.81 1007.66 1007.79 1007.70 1007.78 1007.97 1007.96 1008.57 1008.30 1007.70 1006.95 1006.00 1005.89 1005.76 1005.61 1005.25 1004.91
1017.85 1017.47 1017.13 1016.92 1016.69 1016.52 1016.39 1016.21 1015.81 1015.50 1015.15 1014.81 1014.55 1014.18 1014.07 1013.72 1012.05 1011.27 1010.38 1009.57 1009.02 1008.41 1007.88 1007.46 1006.88 1006.71 1006.74 1007.35 1008.21 1009.18 1009.41 1009.49 1009.35 1008.59 1008.23 1008.30 1008.12 1008.61 1009.30 1008.97 1008.02 1006.89 1006.17 1006.06 1006.05 1005.64 1005.16
1018.21 1017.82 1017.49 1017.17 1016.90 1016.73 1016.50 1016.13 1015.76 1015.45 1015.23 1015.04 1014.49 1014.03 1014.05 1013.78 1011.79 1011.10 1010.43 1009.62 1009.10 1008.94 1008.93 1008.75 1008.46 1007.85 1007.61 1008.61 1009.63 1010.20 1010.40 1010.18 1010.19 1010.09 1010.02 1009.93 1009.83 1009.92 1009.80 1009.15 1008.20 1006.65 1006.25 1005.90 1006.55 1006.79 1005.71
1018.41 1018.02 1017.63 1017.27 1016.94 1016.62 1016.37 1016.09 1015.86 1015.61 1015.21 1015.01 1014.49 1013.95 1013.96 1013.74 1011.93 1010.62 1009.97 1009.45 1009.20 1009.18 1009.43 1009.11 1009.23 1009.19 1009.29 1009.92 1010.47 1010.62 1010.65 1010.52 1010.58 1010.26 1010.31 1010.39 1010.32 1010.38 1009.95 1008.83 1008.02 1006.95 1006.45 1006.24 1006.81 1006.52 1005.86
1018.32 1017.98 1017.67 1017.35 1016.89 1016.70 1016.45 1016.23 1016.09 1015.83 1015.48 1015.05 1014.84 1014.04 1014.01 1013.99 1011.71 1010.12 1009.19 1008.62 1008.55 1008.39 1008.77 1009.21 1009.58 1009.72 1009.91 1010.65 1010.94 1010.82 1011.08 1011.12 1010.85 1010.55 1010.24 1010.25 1009.76 1009.61 1009.44 1008.08 1006.99 1006.44 1006.60 1006.46 1006.38 1006.65 1006.37
Thickness
5693 5698 5702 5707 5711 5715 5720 5725 5730 5734 5738 5742 5746 5752 5759 5766 5774 5782 5789 5795 5801 5806 5811 5817 5821 5825 5831 5830 5841 5887 5886 5884 5879 5871 5860 5855 5846 5839 5824 5832 5841 5828 5833 5838 5841 5837 5835
5687 5692 5698 5702 5707 5711 5717 5722 5727 5731 5735 5740 5746 5751 5758 5766 5774 5782 5791 5798 5804 5809 5814 5818 5822 5825 5829 5822 5881 5885 5882 5879 5874 5866 5859 5858 5851 5854 5838 5838 5836 5837 5836 5832 5832 5829 5831
5682 5687 5693 5698 5703 5708 5713 5719 5724 5729 5734 5740 5745 5751 5758 5766 5776 5785 5793 5802 5807 5812 5817 5821 5823 5826 5826 5839 5880 5882 5879 5872 5874 5867 5855 5865 5865 5848 5847 5835 5846 5833 5817 5825 5819 5823 5818
5675 5681 5687 5693 5698 5704 5709 5715 5721 5727 5733 5739 5745 5751 5759 5768 5777 5787 5797 5806 5812 5817 5821 5823 5824 5825 5824 5873 5879 5876 5876 5871 5876 5874 5869 5870 5870 5852 5849 5852 5836 5819 5808 5792 5817 5821 5820
5667 5673 5679 5686 5692 5699 5706 5712 5718 5724 5731 5738 5744 5752 5761 5770 5779 5789 5801 5810 5816 5821 5822 5823 5823 5825 5826 5875 5864 5878 5877 5863 5868 5868 5872 5875 5864 5844 5843 5819 5809 5799 5783 5796 5810 5825 5817
5659 5665 5671 5679 5686 5693 5700 5707 5715 5722 5729 5737 5745 5753 5762 5771 5781 5792 5804 5815 5818 5819 5820 5822 5827 5818 5846 5849 5868 5876 5878 5872 5859 5855 5851 5846 5831 5818 5808 5803 5774 5790 5792 5804 5805 5820 5817
5651 5658 5664 5671 5679 5687 5695 5703 5711 5719 5728 5736 5744 5753 5762 5772 5782 5792 5804 5815 5812 5811 5821 5822 5826 5827 5841 5860 5875 5868 5875 5861 5856 5841 5814 5826 5804 5791 5806 5813 5816 5814 5811 5803 5820 5826 5815
5645 5651 5657 5664 5672 5681 5689 5697 5706 5715 5724 5733 5743 5753 5762 5772 5783 5792 5797 5803 5809 5810 5798 5834 5835 5835 5847 5854 5835 5854 5873 5843 5834 5810 5820 5803 5792 5815 5825 5829 5820 5814 5806 5802 5818 5826 5820
5639 5645 5651 5658 5666 5675 5684 5692 5701 5711 5720 5729 5739 5749 5759 5771 5782 5789 5791 5803 5817 5816 5795 5821 5835 5837 5842 5846 5833 5840 5857 5845 5827 5812 5810 5792 5811 5827 5828 5826 5810 5805 5796 5799 5801 5814 5812
5633 5639 5645 5652 5660 5668 5677 5686 5696 5706 5716 5726 5735 5744 5753 5766 5778 5777 5792 5810 5814 5816 5767 5801 5822 5837 5846 5847 5831 5861 5863 5846 5826 5808 5807 5805 5823 5818 5820 5818 5808 5798 5815 5813 5810 5796 5770
5628 5634 5640 5647 5655 5662 5672 5681 5691 5702 5712 5722 5732 5740 5746 5752 5760 5772 5798 5806 5813 5810 5743 5818 5822 5859 5847 5832 5838 5845 5863 5843 5814 5815 5810 5799 5813 5810 5808 5814 5820 5807 5823 5814 5814 5794 5778
5623 5629 5636 5643 5650 5658 5666 5676 5686 5697 5708 5719 5731 5737 5742 5748 5753 5781 5791 5801 5804 5754 5743 5803 5823 5819 5819 5828 5830 5837 5839 5848 5837 5816 5813 5809 5829 5819 5815 5825 5824 5825 5815 5799 5785 5771 5742
5618 5624 5631 5638 5646 5654 5662 5671 5681 5692 5704 5717 5731 5739 5738 5745 5766 5781 5787 5787 5743 5730 5794 5791 5801 5810 5808 5803 5811 5817 5813 5805 5790 5775 5776 5793 5803 5821 5827 5810 5812 5799 5775 5745 5746 5738 5743
5613 5620 5626 5634 5641 5649 5658 5667 5676 5688 5701 5714 5730 5741 5749 5757 5769 5773 5775 5754 5733 5761 5766 5796 5805 5800 5791 5800 5801 5805 5794 5785 5800 5793 5767 5758 5756 5802 5826 5813 5794 5787 5769 5731 5738 5730 5754
5609 5615 5622 5629 5636 5645 5653 5662 5671 5683 5697 5710 5728 5739 5745 5764 5764 5765 5754 5721 5736 5749 5777 5779 5791 5786 5786 5791 5796 5794 5786 5780 5794 5794 5770 5752 5763 5811 5822 5827 5815 5796 5769 5787 5752 5748 5745
5604 5610 5617 5624 5631 5639 5648 5657 5667 5678 5692 5706 5715 5725 5742 5760 5762 5758 5734 5722 5742 5762 5775 5777 5765 5783 5773 5781 5781 5777 5772 5799 5800 5804 5808 5786 5763 5800 5816 5820 5820 5808 5813 5776 5755 5736 5738
5600 5607 5613 5620 5626 5634 5643 5652 5661 5673 5688 5702 5710 5721 5747 5755 5758 5737 5713 5718 5746 5764 5773 5767 5768 5771 5784 5783 5776 5774 5780 5799 5811 5813 5804 5784 5773 5789 5806 5794 5797 5791 5783 5778 5766 5752 5730
5596 5603 5609 5615 5621 5628 5638 5645 5654 5665 5679 5693 5694 5709 5737 5742 5721 5704 5709 5724 5749 5757 5774 5771 5774 5772 5781 5784 5781 5779 5780 5795 5824 5811 5790 5794 5771 5757 5776 5811 5818 5811 5797 5787 5759 5752 5745
5592 5599 5605 5611 5617 5624 5632 5639 5647 5657 5665 5671 5678 5689 5727 5730 5703 5703 5717 5733 5749 5752 5760 5767 5772 5784 5787 5779 5772 5779 5796 5821 5818 5809 5799 5797 5767 5749 5764 5785 5807 5805 5803 5790 5779 5766 5746
5588 5594 5601 5607 5613 5619 5626 5632 5641 5650 5658 5663 5673 5687 5702 5710 5708 5713 5719 5726 5737 5762 5762 5769 5773 5782 5777 5774 5780 5779 5789 5813 5819 5814 5821 5816 5766 5771 5762 5773 5795 5797 5808 5801 5784 5753 5756
5582 5589 5596 5601 5606 5613 5619 5626 5634 5645 5656 5660 5667 5681 5688 5689 5702 5710 5718 5722 5730 5737 5761 5764 5762 5767 5774 5768 5766 5771 5786 5794 5809 5807 5811 5801 5774 5776 5789 5797 5797 5803 5806 5802 5787 5784 5775
5576 5585 5591 5596 5601 5607 5613 5620 5629 5641 5650 5656 5666 5673 5682 5684 5693 5703 5706 5723 5727 5735 5746 5748 5747 5759 5762 5750 5756 5758 5766 5771 5775 5792 5789 5784 5772 5785 5788 5795 5795 5793 5804 5807 5805 5798 5788
5573 5580 5585 5590 5595 5601 5607 5613 5623 5634 5646 5648 5659 5671 5675 5677 5685 5693 5700 5708 5725 5735 5746 5753 5755 5758 5757 5763 5766 5772 5772 5768 5771 5772 5769 5773 5764 5761 5770 5779 5782 5765 5775 5784 5794 5793 5793
5565 5573 5578 5583 5589 5594 5601 5606 5615 5625 5632 5636 5646 5657 5664 5668 5677 5687 5697 5706 5716 5727 5734 5747 5754 5753 5759 5764 5766 5765 5759 5762 5768 5762 5757 5763 5755 5747 5748 5762 5736 5765 5785 5791 5789 5790 5792
5553 5561 5568 5574 5580 5587 5594 5600 5609 5618 5625 5633 5640 5650 5655 5657 5670 5684 5692 5701 5713 5723 5728 5738 5744 5750 5752 5753 5732 5724 5725 5745 5746 5758 5755 5752 5749 5732 5734 5726 5747 5760 5765 5768 5771 5780 5795
5541 5549 5558 5564 5571 5580 5587 5594 5603 5611 5621 5630 5636 5645 5651 5653 5665 5680 5685 5696 5698 5705 5713 5725 5737 5741 5745 5733 5722 5706 5704 5711 5721 5734 5751 5749 5746 5741 5724 5726 5718 5743 5766 5774 5775 5753 5792
5530 5538 5546 5554 5562 5570 5579 5589 5598 5606 5614 5623 5632 5641 5646 5650 5666 5676 5675 5686 5700 5700 5697 5703 5711 5716 5727 5708 5696 5692 5695 5711 5705 5711 5715 5715 5719 5718 5712 5717 5728 5761 5765 5775 5748 5748 5782
5521 5529 5538 5545 5555 5565 5575 5583 5592 5599 5609 5617 5627 5636 5642 5645 5660 5677 5685 5688 5691 5689 5686 5698 5699 5703 5700 5692 5690 5687 5689 5696 5698 5709 5708 5709 5708 5708 5707 5713 5719 5757 5765 5756 5760 5766 5777
5515 5523 5532 5540 5549 5559 5568 5576 5584 5592 5601 5612 5621 5630 5635 5640 5660 5680 5690 5698 5696 5697 5692 5692 5694 5692 5692 5684 5685 5687 5685 5685 5688 5695 5709 5699 5711 5710 5717 5726 5750 5763 5759 5767 5768 5763 5769